User: anonymous   Login
Location: Trondheim
(63.4170°N, 10.4170°E)
Time: 06:25:40
(UTC+01:00)
Language:

Iridium 82 - Orbit

View from above orbital plane
View from above orbital plane
View from above satellite
View from above satellite

Ground track
Ground track

The orbit data is extracted from the following two-line orbital elements,

1 25467U 98051A   14304.43800361  .00000671  00000-0  23246-3 0  1248
2 25467 086.3990 063.2386 0002331 116.3327 243.8109 14.34216423849054
Epoch (UTC): 31 October 2014 10:30:43
Eccentricity: 0.0002331
inclination: 86.3990°
perigee height: 776 km
apogee height: 779 km
right ascension of ascending node: 63.2386°
argument of perigee: 116.3327°
revolutions per day: 14.34216423
mean anomaly at epoch: 243.8109°
orbit number at epoch: 84905

The dashed part of the orbit path shows where the satellite is in the earth's shadow,  

DLR